Regional Weather Roundup
Issued by NWS Spokane, WA

Home | Current Version | Previous Version | Text Only | Print | Product List | Glossary On
Versions: 1 2 3 4 5 6 7 8 9 10 11 12 13 14 15 16 17 18 19 20 21 22 23 24 25 26 27 28 29 30 31 32 33 34 35 36 37 38 39 40 41 42 43 44 45 46 47 48 49 50
484
NZUS01 KOTX 062210
RWROTX
EASTERN WASHINGTON/NORTHERN IDAHO ROUNDUP
NATIONAL WEATHER SERVICE, SPOKANE WA
300 PM PDT FRI MAY 06 2016

Note: "fair" indicated few or no clouds below 12,000 feet with no
significant weather and/or obstructions to visibility.

...NORTHEAST WASHINGTON AND NORTHERN IDAHO PANHANDLE...

CITY           SKY/WX    TMP DP  RH WIND       PRES   REMARKS
SPOKANE INTL   PTSUNNY   74  44  34 NE17G23   29.98F
SPOKANE DOWNTO MOSUNNY   77  46  33 E15       29.98F
COEUR D ALENE  MOSUNNY   75  46  35 E16G23    29.97F
DEER PARK      MOSUNNY   75  44  33 NE16      30.01F
SANDPOINT      MOSUNNY   75  41  29 NE16G23   30.02F

...SOUTHEAST WASHINGTON AND SOUTHERN IDAHO PANHANDLE...

CITY           SKY/WX    TMP DP  RH WIND       PRES   REMARKS
WALLA WALLA    PTSUNNY   68  55  63 S7        29.92F
PULLMAN/MOSCOW MOSUNNY   75  51  43 NE10      29.95F
LEWISTON       MOSUNNY   76  55  48 CALM      29.89F
LOWELL           N/A     74  57  55 S6        29.84F

...COLUMBIA BASIN...

CITY           SKY/WX    TMP DP  RH WIND       PRES   REMARKS
EPHRATA        SUNNY     82  48  30 N10G23    29.95F
MOSES LAKE     SUNNY     83  48  29 NE17G25   29.95F
TRI CITIES     PTSUNNY   81  55  40 SE10      29.88F
HERMISTON      PTSUNNY   75  55  49 E3        29.90F
PENDLETON      CLOUDY    71  51  49 E10       29.93F

...EAST SLOPES CASCADES...

CITY           SKY/WX    TMP DP  RH WIND       PRES   REMARKS
THE DALLES     MOSUNNY   82  48  30 VRB5      29.91F
YAKIMA         MOSUNNY   84  45  25 N13G23    29.96F
ELLENSBURG     SUNNY     80  47  31 VRB5      29.98F
STAMPEDE PASS  SUNNY     67  41  38 CALM      30.09S
WENATCHEE      SUNNY     78  44  29 SW12      29.97F
OMAK           SUNNY     80  45  28 N15       30.00F

...SOUTHERN BRITISH COLUMBIA...

CITY           SKY/WX    TMP DP  RH WIND       PRES   REMARKS
PENTICTON      MOSUNNY   72  45  37 NW13      30.06F
CASTLEGAR      MOSUNNY   75  46  35 N10       30.01
CRANBROOK      MOSUNNY   72  34  25 CALM      30.11F

...WESTERN MONTANA...

CITY           SKY/WX    TMP DP  RH WIND       PRES   REMARKS
MISSOULA       PTSUNNY   64  42  44 E20G26    30.09F

...NEIGHBORING CITIES...

CITY           SKY/WX    TMP DP  RH WIND       PRES   REMARKS
SEATTLE        MOSUNNY   75  40  28 N20       30.03F
CALGARY        PTSUNNY   66  23  19 S9G17     30.19F



USA.gov is the U.S. government's official web portal to all federal, state and local government web resources and services.